User: anonymous   Login
Location: Stamford Observatory
(41.1241°N, 73.5498°W)
Time: 22:22:36
(UTC-05:00)
Language:

IRS-P3 - Orbit

View from above orbital plane
View from above orbital plane
View from above satellite
View from above satellite

Ground track
Ground track

The orbit data is extracted from the following two-line orbital elements,

1 23827U 96017A   16039.45722395  .00000105  00000-0  66934-4 0  9999
2 23827  98.6815 337.4425 0004111  41.1008 319.0479 14.22428593 32075
Epoch (UTC): 08 February 2016 10:58:24
Eccentricity: 0.0004111
inclination: 98.6815°
perigee height: 814 km
apogee height: 820 km
right ascension of ascending node: 337.4425°
argument of perigee: 41.1008°
revolutions per day: 14.22428593
mean anomaly at epoch: 319.0479°
orbit number at epoch: 3207

The dashed part of the orbit path shows where the satellite is in the earth's shadow,  

DLR